Weather History for KAKO - October, 2012

Change the Weather History Date:

Thursday, October 11, 2012

  Actual Average Record
Temperature  
Mean Temperature 46 °F 52 °F  
Max Temperature 58 °F 66 °F 88 °F (1975)
Min Temperature 34 °F 38 °F 19 °F (1977)
Degree Days  
Heating Degree Days 19    
Month to date heating degree days 203  
Cooling Degree Days 0    
Month to date cooling degree days 0  
Moisture  
Dew Point 34 °F    
Average Humidity 58    
Maximum Humidity 75    
Minimum Humidity 40    
Precipitation  
Precipitation 0.00 in 0.04 in 1.13 in (1973)
Month to date precipitation 0.23 0.46  
Year to date precipitation 7.33 15.11  
Sea Level Pressure  
Sea Level Pressure 30.07 in    
Wind  
Wind Speed 13 mph (NNE)    
Max Wind Speed 21 mph    
Max Gust Speed 25 mph    
Visibility 10 miles    
Events      
T = Trace of Precipitation, MM = Missing Value Source: NWS Daily Summary

Daily Weather History Graph

Daily Weather History Graph

Search for Another Location

Airport or City:

Trip Planner

Search our weather history database for the weather conditions in past years. The results will help you decide how hot, cold, wet, or windy it might be!

Date:

Astronomy

Oct. 11, 2012 Rise Set
Actual Time 6:59 AM MDT 6:18 PM MDT
Civil Twilight 6:32 AM MDT 6:45 PM MDT
Nautical Twilight 6:01 AM MDT 7:16 PM MDT
Astronomical Twilight 5:29 AM MDT 7:48 PM MDT
Moon 2:40 AM MDT (10/11) 3:56 PM MDT (10/11)
Length of Visible Light 12h 12m
Length of Day
11h 18m
Waning Crescent, 18% of the Moon is Illuminated
Oct 11
Waning Crescent
Oct 15
New
Oct 21
First Quarter
Oct 29
Full
Nov 6
Last Quarter

Hourly Weather History & Observations

Time (MDT) Temp. Windchill Dew Point Humidity Pressure Visibility Wind Dir Wind Speed Gust Speed Precip Events Conditions
12:53 AM 48.0 °F - 35.1 °F 61% 29.90 in 10.0 mi WSW 12.7 mph - N/A   Clear
1:53 AM 48.0 °F - 35.1 °F 61% 29.88 in 10.0 mi West 12.7 mph - N/A   Clear
2:53 AM 48.0 °F - 36.0 °F 63% 29.88 in 9.0 mi West 11.5 mph - N/A   Clear
3:53 AM 46.9 °F - 36.0 °F 66% 29.87 in 8.0 mi West 11.5 mph - N/A   Clear
4:53 AM 46.0 °F 39.9 °F 36.0 °F 68% 29.90 in 8.0 mi West 13.8 mph - N/A   Clear
5:53 AM 46.9 °F - 37.0 °F 68% 29.91 in 9.0 mi West 10.4 mph - N/A   Clear
6:53 AM 46.0 °F 39.6 °F 36.0 °F 68% 29.95 in 9.0 mi West 15.0 mph - N/A   Clear
7:53 AM 48.0 °F - 37.9 °F 68% 29.99 in 6.0 mi West 11.5 mph - N/A   Haze
9:53 AM 48.0 °F - 36.0 °F 63% 30.09 in 10.0 mi NNE 15.0 mph - N/A   Clear
10:53 AM 50.0 °F - 34.0 °F 54% 30.11 in 10.0 mi NE 13.8 mph - N/A   Clear
11:53 AM 52.0 °F - 34.0 °F 50% 30.12 in 10.0 mi NE 15.0 mph - N/A   Clear
12:53 PM 55.9 °F - 34.0 °F 44% 30.09 in 10.0 mi NE 15.0 mph 20.7 mph N/A   Clear
1:53 PM 57.9 °F - 34.0 °F 41% 30.08 in 10.0 mi NE 17.3 mph 23.0 mph N/A   Clear
2:53 PM 57.0 °F - 34.0 °F 42% 30.09 in 10.0 mi ENE 15.0 mph - N/A   Clear
4:53 PM 54.0 °F - 32.0 °F 43% 30.12 in 10.0 mi ENE 19.6 mph - N/A   Clear
5:53 PM 50.0 °F - 30.9 °F 48% 30.17 in 10.0 mi ENE 12.7 mph - N/A   Clear
7:53 PM 42.1 °F 37.1 °F 30.9 °F 65% 30.24 in 10.0 mi ENE 8.1 mph - N/A   Clear
8:53 PM 39.0 °F 32.8 °F 30.0 °F 70% 30.27 in 10.0 mi ENE 9.2 mph - N/A   Clear
9:53 PM 37.0 °F 30.4 °F 28.9 °F 73% 30.29 in 10.0 mi East 9.2 mph - N/A   Partly Cloudy
10:53 PM 36.0 °F 28.5 °F 28.9 °F 76% 30.29 in 10.0 mi ESE 10.4 mph - N/A   Clear
11:53 PM 35.1 °F 25.9 °F 28.0 °F 76% 30.27 in 10.0 mi ESE 13.8 mph - N/A   Clear